Princeton, MN

4:52 PM CDT on April 24, 2017 (GMT -0500)
Princeton Municipal

Weather History for KPNM - October, 2012

Change the Weather History Date:

Friday, October 5, 2012

  Actual Average Record
Temperature  
Mean Temperature 37 °F -  
Max Temperature 41 °F 61 °F 84 °F (2011)
Min Temperature 33 °F 38 °F 26 °F (1999)
Degree Days  
Heating Degree Days 28    
Moisture  
Dew Point 26 °F    
Average Humidity 61    
Maximum Humidity 75    
Minimum Humidity 53    
Precipitation  
Precipitation 0.00 in - - ()
Sea Level Pressure  
Sea Level Pressure 30.11 in    
Wind  
Wind Speed 15 mph (West)    
Max Wind Speed 22 mph    
Max Gust Speed 33 mph    
Visibility 10 miles    
Events      
Averages and records for this station are not official NWS values.
T = Trace of Precipitation, MM = Missing Value Source: NWS Daily Summary

Daily Weather History Graph

Daily Weather History Graph

Search for Another Location

Airport or City:

Trip Planner

Search our weather history database for the weather conditions in past years. The results will help you decide how hot, cold, wet, or windy it might be!

Date:

Astronomy

Oct. 05, 2012 Rise Set
Actual Time 7:18 AM CDT 6:46 PM CDT
Civil Twilight 6:48 AM CDT 7:15 PM CDT
Nautical Twilight 6:14 AM CDT 7:49 PM CDT
Astronomical Twilight 5:39 AM CDT 8:24 PM CDT
Moon 9:56 PM CDT (10/5) 12:40 PM CDT (10/5)
Length of Visible Light 12h 26m
Length of Day
11h 27m
Waning Gibbous, 74% of the Moon is Illuminated
Oct 5
Waning Gibbous
Oct 8
Last Quarter
Oct 15
New
Oct 21
First Quarter
Oct 29
Full

Hourly Weather History & Observations

Time (CDT) Temp. Windchill Dew Point Humidity Pressure Visibility Wind Dir Wind Speed Gust Speed Precip Events Conditions
12:12 AM 39.2 °F 30.5 °F 28.4 °F 65% 30.11 in 10.0 mi West 16.1 mph 23.0 mph N/A   Overcast
12:33 AM 39.2 °F 31.2 °F 28.4 °F 65% 30.11 in 10.0 mi West 13.8 mph 19.6 mph N/A   Overcast
12:53 AM 39.2 °F 31.2 °F 28.4 °F 65% 30.11 in 10.0 mi West 13.8 mph 18.4 mph N/A   Overcast
1:12 AM 39.2 °F 30.8 °F 28.4 °F 65% 30.10 in 10.0 mi West 15.0 mph 19.6 mph N/A   Overcast
1:33 AM 39.2 °F 30.2 °F 26.6 °F 61% 30.10 in 10.0 mi West 17.3 mph 27.6 mph N/A   Overcast
1:53 AM 39.2 °F 30.5 °F 26.6 °F 61% 30.11 in 10.0 mi West 16.1 mph 28.8 mph N/A   Overcast
2:12 AM 39.2 °F 30.5 °F 26.6 °F 61% 30.11 in 10.0 mi West 16.1 mph 25.3 mph N/A   Overcast
2:33 AM 39.2 °F 30.2 °F 26.6 °F 61% 30.11 in 10.0 mi West 17.3 mph 25.3 mph N/A   Overcast
3:12 AM 39.2 °F 31.2 °F 26.6 °F 61% 30.10 in 10.0 mi West 13.8 mph 21.9 mph N/A   Unknown
3:33 AM 39.2 °F 30.5 °F 26.6 °F 61% 30.09 in 10.0 mi West 16.1 mph 26.5 mph N/A   Unknown
3:53 AM 39.2 °F 31.6 °F 26.6 °F 61% 30.09 in 10.0 mi West 12.7 mph 21.9 mph N/A   Unknown
4:12 AM 39.2 °F 30.8 °F 26.6 °F 61% 30.10 in 10.0 mi West 15.0 mph 25.3 mph N/A   Unknown
4:33 AM 37.4 °F 28.9 °F 26.6 °F 65% 30.10 in 10.0 mi West 13.8 mph 21.9 mph N/A   Unknown
4:53 AM 37.4 °F 29.3 °F 26.6 °F 65% 30.09 in 10.0 mi West 12.7 mph 20.7 mph N/A   Unknown
5:12 AM 37.4 °F 28.5 °F 24.8 °F 60% 30.09 in 10.0 mi West 15.0 mph 26.5 mph N/A   Unknown
5:33 AM 37.4 °F 28.9 °F 26.6 °F 65% 30.09 in 10.0 mi West 13.8 mph 18.4 mph N/A   Unknown
5:53 AM 35.6 °F 26.6 °F 26.6 °F 70% 30.09 in 10.0 mi WSW 13.8 mph 18.4 mph N/A   Unknown
6:12 AM 35.6 °F 26.6 °F 26.6 °F 70% 30.09 in 10.0 mi WSW 13.8 mph - N/A   Mostly Cloudy
6:33 AM 35.6 °F 26.6 °F 26.6 °F 70% 30.09 in 10.0 mi WSW 13.8 mph 18.4 mph N/A   Unknown
6:53 AM 33.8 °F 26.4 °F 26.6 °F 75% 30.09 in 10.0 mi West 9.2 mph 17.3 mph N/A   Unknown
7:12 AM 35.6 °F 27.1 °F 26.6 °F 70% 30.09 in 10.0 mi West 12.7 mph 20.7 mph N/A   Unknown
7:33 AM 35.6 °F 28.0 °F 26.6 °F 70% 30.09 in 10.0 mi WSW 10.4 mph 16.1 mph N/A   Unknown
7:53 AM 33.8 °F 26.4 °F 26.6 °F 75% 30.09 in 7.0 mi WSW 9.2 mph - N/A   Unknown
8:12 AM 33.8 °F 25.8 °F 26.6 °F 75% 30.09 in 10.0 mi West 10.4 mph - N/A   Unknown
8:33 AM 35.6 °F 27.1 °F 26.6 °F 70% 30.10 in 10.0 mi WSW 12.7 mph - N/A   Unknown
8:53 AM 35.6 °F 27.5 °F 26.6 °F 70% 30.10 in 10.0 mi WSW 11.5 mph 18.4 mph N/A   Overcast
9:33 AM 37.4 °F 27.2 °F 24.8 °F 60% 30.11 in 10.0 mi West 19.6 mph 26.5 mph N/A   Unknown
10:13 AM 37.4 °F 27.8 °F 24.8 °F 60% 30.12 in 10.0 mi West 17.3 mph 23.0 mph N/A   Unknown
10:33 AM 37.4 °F 27.5 °F 24.8 °F 60% 30.12 in 10.0 mi West 18.4 mph 24.2 mph N/A   Unknown
10:53 AM 37.4 °F 28.2 °F 24.8 °F 60% 30.11 in 10.0 mi West 16.1 mph 20.7 mph N/A   Unknown
11:13 AM 39.2 °F 29.6 °F 24.8 °F 56% 30.11 in 10.0 mi West 19.6 mph 27.6 mph N/A   Unknown
11:33 AM 39.2 °F 30.2 °F 24.8 °F 56% 30.11 in 10.0 mi West 17.3 mph 27.6 mph N/A   Unknown
12:13 PM 39.2 °F 30.2 °F 24.8 °F 56% 30.11 in 10.0 mi West 17.3 mph 24.2 mph N/A   Unknown
12:33 PM 39.2 °F 30.2 °F 24.8 °F 56% 30.10 in 10.0 mi West 17.3 mph 21.9 mph N/A   Unknown
12:53 PM 39.2 °F 30.2 °F 24.8 °F 56% 30.10 in 10.0 mi West 17.3 mph 26.5 mph N/A   Unknown
1:13 PM 41.0 °F 32.2 °F 24.8 °F 53% 30.10 in 10.0 mi West 18.4 mph 27.6 mph N/A   Unknown
1:33 PM 41.0 °F 31.4 °F 24.8 °F 53% 30.10 in 10.0 mi West 21.9 mph 32.2 mph N/A   Unknown
1:53 PM 41.0 °F 32.2 °F 24.8 °F 53% 30.10 in 10.0 mi West 18.4 mph 32.2 mph N/A   Unknown
2:13 PM 39.2 °F 29.8 °F 24.8 °F 56% 30.10 in 10.0 mi West 18.4 mph 24.2 mph N/A   Unknown
2:33 PM 41.0 °F 32.2 °F 24.8 °F 53% 30.10 in 10.0 mi West 18.4 mph 29.9 mph N/A   Unknown
2:53 PM 41.0 °F 32.2 °F 24.8 °F 53% 30.10 in 10.0 mi West 18.4 mph 33.4 mph N/A   Unknown
3:13 PM 41.0 °F 33.1 °F 24.8 °F 53% 30.10 in 10.0 mi West 15.0 mph 25.3 mph N/A   Unknown
3:33 PM 39.2 °F 29.6 °F 24.8 °F 56% 30.10 in 10.0 mi West 19.6 mph 26.5 mph N/A   Unknown
3:53 PM 41.0 °F 31.9 °F 24.8 °F 53% 30.10 in 10.0 mi West 19.6 mph 24.2 mph N/A   Unknown
4:13 PM 39.2 °F 29.8 °F 24.8 °F 56% 30.10 in 10.0 mi West 18.4 mph 31.1 mph N/A   Unknown
4:33 PM 41.0 °F 31.4 °F 24.8 °F 53% 30.10 in 10.0 mi West 21.9 mph 32.2 mph N/A   Unknown
4:53 PM 39.2 °F 29.3 °F 24.8 °F 56% 30.10 in 10.0 mi West 20.7 mph 26.5 mph N/A   Unknown
5:13 PM 39.2 °F 29.3 °F 24.8 °F 56% 30.10 in 10.0 mi West 20.7 mph 27.6 mph N/A   Unknown
5:33 PM 39.2 °F 30.5 °F 24.8 °F 56% 30.10 in 10.0 mi West 16.1 mph 23.0 mph N/A   Unknown
5:53 PM 39.2 °F 32.0 °F 24.8 °F 56% 30.10 in 10.0 mi West 11.5 mph 21.9 mph N/A   Unknown
6:13 PM 39.2 °F 31.2 °F 24.8 °F 56% 30.10 in 10.0 mi West 13.8 mph 28.8 mph N/A   Overcast
6:33 PM 39.2 °F 30.8 °F 24.8 °F 56% 30.11 in 7.0 mi West 15.0 mph 26.5 mph N/A   Overcast
6:53 PM 39.2 °F 30.5 °F 24.8 °F 56% 30.11 in 10.0 mi WNW 16.1 mph 26.5 mph N/A   Overcast
7:13 PM 39.2 °F 31.2 °F 24.8 °F 56% 30.12 in 10.0 mi WNW 13.8 mph 21.9 mph N/A   Unknown
7:33 PM 39.2 °F 30.2 °F 26.6 °F 61% 30.12 in 10.0 mi West 17.3 mph 23.0 mph N/A   Unknown
7:53 PM 39.2 °F 29.0 °F 24.8 °F 56% 30.12 in 10.0 mi West 21.9 mph 28.8 mph N/A   Unknown
8:13 PM 39.2 °F 30.2 °F 24.8 °F 56% 30.13 in 10.0 mi WNW 17.3 mph 25.3 mph N/A   Unknown
8:32 PM 37.4 °F 27.8 °F 24.8 °F 60% 30.13 in 10.0 mi West 17.3 mph 21.9 mph N/A   Unknown
8:53 PM 37.4 °F 28.9 °F 24.8 °F 60% 30.13 in 10.0 mi WNW 13.8 mph 21.9 mph N/A   Unknown
9:13 PM 37.4 °F 29.8 °F 24.8 °F 60% 30.13 in 10.0 mi West 11.5 mph 20.7 mph N/A   Unknown
9:33 PM 37.4 °F 29.8 °F 24.8 °F 60% 30.14 in 10.0 mi West 11.5 mph 17.3 mph N/A   Overcast
9:53 PM 37.4 °F 29.8 °F 24.8 °F 60% 30.14 in 10.0 mi West 11.5 mph 20.7 mph N/A   Overcast
10:13 PM 35.6 °F 25.9 °F 24.8 °F 65% 30.13 in 10.0 mi West 16.1 mph 20.7 mph N/A   Overcast
10:33 PM 35.6 °F 25.9 °F 24.8 °F 65% 30.14 in 10.0 mi West 16.1 mph 21.9 mph N/A   Overcast
10:53 PM 35.6 °F 26.6 °F 26.6 °F 70% 30.14 in 10.0 mi West 13.8 mph - N/A   Overcast
11:33 PM 35.6 °F 28.6 °F 26.6 °F 70% 30.15 in 10.0 mi WNW 9.2 mph 20.7 mph N/A   Overcast
11:53 PM 35.6 °F 28.6 °F 26.6 °F 70% 30.14 in 10.0 mi West 9.2 mph - N/A   Overcast